User: anonymous   Login
Location: Montr�al
(45.5000°N, 73.5830°W)
Time: 00:07:13
(UTC-04:00)
Language:

Cosmos 1151 Rocket - Orbit

View from above orbital plane
View from above orbital plane
View from above satellite
View from above satellite

Ground track
Ground track

The orbit data is extracted from the following two-line orbital elements,

1 11672U 80005B   17289.56890624 +.00000134 +00000-0 +11920-4 0  9992
2 11672 082.5146 324.8115 0015162 274.5847 085.3639 14.87888655020333
Epoch (UTC): 16 October 2017 13:39:13
Eccentricity: 0.0015162
inclination: 82.5146°
perigee height: 594 km
apogee height: 615 km
right ascension of ascending node: 324.8115°
argument of perigee: 274.5847°
revolutions per day: 14.87888655
mean anomaly at epoch: 85.3639°
orbit number at epoch: 2033

The dashed part of the orbit path shows where the satellite is in the earth's shadow,  

DLR